Regional Weather Roundup
Issued by NWS

Home | Current Version | Previous Version | Text Only | Print | Product List | Glossary Off
Versions: 1 2 3 4 5 6 7 8 9 10 11 12 13 14 15 16 17 18 19 20 21 22 23 24 25 26 27 28 29 30 31 32 33 34 35 36 37 38 39 40 41 42 43 44 45 46 47 48 49 50

000
ASUS45 KBOU 310407
RWRCO

WEATHER ROUNDUP FOR COLORADO
NATIONAL WEATHER SERVICE DENVER/BOULDER CO
1000 PM MDT WED JUL 30 2014

NOTE: "FAIR" INDICATES FEW OR NO CLOUDS BELOW 12000 FEET WITH NO
SIGNIFICANT WEATHER AND/OR OBSTRUCTIONS TO VISIBILITY.

COZ001>005-013-030-031-310500-
...NORTHWEST COLORADO...

CITY           SKY/WX    TMP DP  RH WIND       PRES   REMARKS
CRAIG          CLOUDY    57  56  96 E8        30.32R
HAYDEN         CLOUDY    59  52  77 E7        30.34R
MEEKER         CLOUDY    63  56  78 E3        30.32R
MOUNT WERNER   NOT AVBL
STEAMBOAT SPGS CLOUDY    58  54  88 CALM      30.36R
WALDEN         CLOUDY    50  43  76 NE8       30.46R
$$

COZ006>008-011-310500-
...WEST CENTRAL VALLEYS...

CITY           SKY/WX    TMP DP  RH WIND       PRES   REMARKS
GRAND JUNCTION MOCLDY    68  60  75 N7        30.18R
MONTROSE       CLOUDY    71  53  52 E5        30.25R
EAGLE          CLOUDY    63  57  82 CALM      30.36R
RIFLE          CLOUDY    69  57  65 NW5       30.24R
DELTA          PTCLDY    73  55  53 E5        30.18R
NUCLA          PTCLDY    72  52  49 E3        30.25R
$$

COZ017>023-064>068-310500-
...SOUTHWEST COLORADO...

CITY           SKY/WX    TMP DP  RH WIND       PRES   REMARKS
DURANGO        PTCLDY    70  49  47 N6        30.24R
CORTEZ         PTCLDY    69  53  56 CALM      30.21R
PAGOSA SPRINGS PTCLDY    62  50  65 CALM      30.33R
TELLURIDE      NOT AVBL
WOLF CREEK PAS NOT AVBL
$$

COZ009-010-012-014-032>034-037-058>063-310500-
...CENTRAL COLORADO...

CITY           SKY/WX    TMP DP  RH WIND       PRES   REMARKS
ASPEN          LGT RAIN  56  53  90 S3        30.40R
BUENA VISTA    DRIZZLE   56  52  88 NE3       30.46R
COPPER MTN     LGT RAIN  46  39  76 S14       30.67S
BERTHOUD PASS  FOG       36  34  93 SE13      30.71S VSB<1/4
COTTONWOOD PAS HVY RAIN  54  50  87 CALM      30.56R VSB 1/2
GUNNISON       MOCLDY    63  48  59 CALM      30.38R
KREMMLING      CLOUDY    55  52  88 CALM      30.42R
LEADVILLE      LGT RAIN  47  47 100 SW6       30.54R FOG
MONARCH PASS   SNOW      43  41  93 NE21      30.75R VSB<1/4
SALIDA         CLOUDY    57  54  88 E8        30.50R
SUNLIGHT       CLOUDY    52  48  87 CALM      30.60R
WILKERSON PASS RAIN      43  41  93 NE10G16   30.67R
$$

COZ069>075-310500-
...SAN LUIS VALLEY/SANGRE DE CRISTO MOUNTAINS...

CITY           SKY/WX    TMP DP  RH WIND       PRES   REMARKS
ALAMOSA        LGT RAIN  56  54  93 E10G21    30.36R
LA VETA PASS   LGT RAIN  46  45  93 E10       30.56S VSB 1/2
SAGUACHE       MOCLDY    59  54  82 W3        30.40R
$$

COZ035-036-038>040-310500-
...NORTHERN COLORADO FRONT RANGE...

CITY           SKY/WX    TMP DP  RH WIND       PRES   REMARKS
DENVER INTL AP CLOUDY    59  56  89 SW9       30.35R
DMNS CITY PARK   N/A     57  56  95 SW3       30.35S
AURORA         LGT RAIN  57  56  99 SW5       30.38R
FRONT RANGE AP CLOUDY    59  57  94 SW3       30.37R
ERIE MUNI ARPT LGT RAIN  59  57  95 CALM      30.34S
BOULDER MUN AP DRIZZLE   59  57  94 W7        30.34F
CENTENNIAL     LGT RAIN  57  54  89 SW8       30.37S
BROOMFIELD     DRIZZLE   57  57 100 SW5       30.37S
FORT COLLINS   CLOUDY    59  55  88 S5        30.34S
LONGMONT       CLOUDY    61  58  88 SW7       30.35F
$$

COZ041-046-047-076>085-087-088-310500-
...PIKES PEAK/PALMER DIVIDE AND SOUTHERN FOOTHILLS...

CITY           SKY/WX    TMP DP  RH WIND       PRES   REMARKS
COLO. SPRINGS  CLOUDY    58  53  84 CALM      30.41R
A. F. ACADEMY  LGT RAIN  55  55  99 SW3       30.42S
ELLICOTT       CLOUDY    58  53  84 CALM      30.38R
FALCON         CLOUDY    54  52  92 CALM      30.44S
FORT CARSON    CLOUDY    57  55  91 N2        30.39R
LIMON          CLOUDY    59  53  80 CALM      30.36R
MONUMENT HILL  CLOUDY    52  50  93 CALM      30.43R
TRINIDAD       CLOUDY    60  56  86 NE7       30.36R
$$

COZ042>045-048>051-090-091-310500-
...NORTHEAST COLORADO...

CITY           SKY/WX    TMP DP  RH WIND       PRES   REMARKS
GREELEY ARPT   NOT AVBL
AKRON          CLOUDY    59  55  87 W10       30.31R
BURLINGTON     CLOUDY    63  57  81 NW5       30.29R
WRAY             N/A     62  58  88 W7        30.26S
STERLING       CLOUDY    63  61  94 SW3       30.28R
HOLYOKE        MOCLDY    63  59  88 W6        30.25S
FORT MORGAN    CLOUDY    59  56  91 W6        30.32S
$$

COZ086-089-092>099-310500-
...SOUTHEAST COLORADO...

CITY           SKY/WX    TMP DP  RH WIND       PRES   REMARKS
PUEBLO         CLOUDY    61  60  97 S3        30.32S
LA JUNTA       CLOUDY    64  59  83 S3        30.30R
LAMAR          MOCLDY    61  58  90 SW6       30.26R
SPRINGFIELD      N/A     59  57  93 NW3       30.30R
$$


USA.gov is the U.S. government's official web portal to all federal, state and local government web resources and services.